[[{"header":{"parameterUnit":"m.s-1","parameterCategory":1,"la1":30.2991,"la2":30.254,"lo1":-89.0895,"lo2":-89.0444,"dy":0.0017,"dx":0.0017,"nx":28,"ny":28,"refTime":"2023-09-06T21:00:00:Z","depth":0,"parameterNumber":2,"parameterNumberName":"U-component_of_WINDS"},"data":[0,0,0,0,0,0,0,0,0,0,0,0,0,0,0,0,0,0,0,0,0,0,0,0,0,0,0,0,0,0,0,0,0,0,0,0,0,0,0,0,0,0,0,0,0,0,0,0,0,0,0,0,0,0,0,0,0,0,1.9358,1.9358,0,1.9438,1.9439,1.944,1.9455,1.9454,1.9453,1.9453,1.9538,1.9541,1.9544,0,0,0,0,0,0,0,0,0,0,0,0,0,1.9218,1.9221,1.9357,1.9358,1.9359,1.9438,1.9439,1.944,1.9455,1.9454,1.9453,1.9452,1.9537,1.954,1.9544,0,0,0,0,0,0,0,0,0,0,0,0,0,1.9287,1.9221,1.9357,1.9376,1.9379,1.9438,1.9439,1.944,1.9455,1.9454,1.9453,1.9452,1.9536,1.954,1.9544,1.9591,0,0,1.9558,1.9559,0,0,0,0,0,0,0,0,1.9283,1.9292,1.9372,1.9375,1.9378,1.9435,1.9421,1.9491,1.9455,1.9426,1.9453,1.9452,1.9505,1.9512,1.9529,1.9595,1.9599,1.9558,1.9561,1.9562,1.9564,0,0,0,0,0,0,0,1.9278,1.9288,1.9389,1.9374,1.9377,1.9381,1.939,1.9434,1.947,1.9429,1.943,1.9439,1.9506,1.9525,1.9531,1.96,1.9558,1.9562,1.9564,1.9566,1.9708,1.9709,0,0,0,0,0,0,1.927,1.9284,1.9387,1.9392,1.9327,1.9384,1.9394,1.9418,1.947,1.9477,1.944,1.9439,1.9518,1.9526,1.9534,1.9592,1.9562,1.9566,1.9569,1.9707,1.9708,1.971,0,0,0,0,0,0,1.9267,1.9279,1.9384,1.9338,1.9352,1.9388,1.9414,1.942,1.9439,1.9478,1.9485,1.9452,1.9517,1.9528,1.9577,1.9595,1.9568,1.9572,1.9706,1.9707,1.9709,1.9708,0,0,0,0,0,0,1.9262,1.9277,1.9295,1.9339,1.9354,1.9424,1.9416,1.9422,1.9446,1.9446,1.9491,1.9498,1.9517,1.957,1.9581,1.9601,1.9576,1.9704,1.9706,1.9708,1.9707,1.971,1.9712,0,0,0,0,0,1.9257,1.9292,1.9296,1.9308,1.9377,1.9425,1.9434,1.9455,1.9447,1.9466,1.9491,1.9497,1.9591,1.9575,1.9587,1.9609,1.9703,1.9706,1.9708,1.9705,1.9709,1.9712,0,0,0,0,0,0,1.9251,1.9298,1.9303,1.9353,1.9385,1.9427,1.9451,1.9458,1.9494,1.9492,1.9517,1.9528,1.9575,1.9597,1.9577,1.9656,1.9647,1.9652,1.964,1.9644,1.9647,1.9641,1.9579,0,0,0,0,0,1.9255,1.9289,1.9329,1.9369,1.9385,1.9415,1.9437,1.945,1.9484,1.9498,1.9527,1.9561,1.9598,1.9622,1.9659,1.971,1.972,1.973,1.9733,1.9735,1.974,1.9768,1.9773,1.9718,1.9718,1.9718,0,0,1.9265,1.9295,1.9315,1.9369,1.9395,1.943,1.9427,1.9464,1.9491,1.9504,1.9551,1.9574,1.9613,1.9663,1.9686,1.9682,1.9757,1.9739,1.974,1.9743,1.9771,1.9776,1.9781,1.972,1.972,1.9719,0,0,1.93,1.9326,1.9362,1.9388,1.9427,1.9447,1.9456,1.9497,1.9512,1.956,1.957,1.9603,1.9667,1.9694,1.9716,1.9761,1.9768,1.9772,1.9787,1.9814,1.9818,1.9822,1.9838,1.9843,1.9776,1.9776,1.9776,0,1.9307,1.936,1.938,1.9417,1.944,1.9453,1.949,1.9515,1.9564,1.958,1.9575,1.9655,1.9682,1.9738,1.9749,1.9767,1.9778,1.9767,1.9816,1.982,1.9824,1.9839,1.9845,1.9777,1.9777,1.9777,1.9776,0,1.9366,1.9403,1.9428,1.9474,1.95,1.9537,1.9563,1.9587,1.9598,1.9618,1.9666,1.97,1.9743,1.9757,1.9768,1.9815,1.9811,1.9811,1.9801,1.9829,1.9844,1.985,1.9777,1.9777,1.9777,1.9777,0,0,1.94,1.9457,1.9465,1.9486,1.953,1.9559,1.9597,1.9638,1.9658,1.9692,1.9724,1.9777,1.9777,1.9802,1.9816,1.984,1.9873,1.9837,1.9838,1.9842,1.9926,1.9926,1.9932,1.9877,1.9879,1.9879,1.9922,0,1.9441,1.9507,1.9526,1.9582,1.9616,1.9628,1.9661,1.9691,1.9711,1.9743,1.9766,1.9803,1.98,1.9815,1.9839,1.9864,1.989,1.9861,1.9908,1.9909,1.9898,1.994,1.994,1.9979,1.9928,1.9929,1.993,0,1.9497,1.953,1.9589,1.9628,1.9643,1.9672,1.9711,1.9742,1.9777,1.979,1.9817,1.9829,1.9869,1.9857,1.9913,1.9892,1.9913,1.9928,1.993,1.9935,1.9921,1.9946,1.9992,1.9998,1.9939,1.9939,1.9938,0,1.9515,1.9576,1.9619,1.9636,1.9683,1.9703,1.9723,1.9757,1.978,1.9815,1.983,1.9869,1.989,1.992,1.9943,1.9932,1.9996,1.9986,2.0008,2.0007,2.0021,2.002,2.0071,2.0034,2.0034,2.0034,2.0034,0,1.9559,1.9594,1.9627,1.9654,1.9694,1.9716,1.9755,1.9777,1.9806,1.9838,1.9851,1.988,1.9907,1.994,1.9958,2.0001,2.001,2.0022,2.0026,2.0021,2.0019,2.0035,2.0033,2.0036,2.0035,2.0035,2.0035,0,1.9586,1.961,1.9658,1.9697,1.9708,1.9736,1.9771,1.9797,1.9817,1.9856,1.9866,1.9898,1.9937,1.9962,2.0012,2.0024,2.0071,2.0075,2.0059,2.0061,2.0081,2.0079,2.0144,2.0153,2.011,2.0111,2.0111,0,1.9612,1.964,1.9682,1.9704,1.9724,1.9758,1.9782,1.9804,1.9828,1.987,1.9891,1.9931,1.9964,2.0026,2.0054,2.0092,2.0097,2.0117,2.0103,2.0096,2.0097,2.0095,2.0097,2.0119,2.0119,2.012,2.012,0,1.9656,1.9666,1.9699,1.9736,1.9763,1.9794,1.9825,1.9841,1.9869,1.9895,1.9935,1.996,2.0011,2.005,2.0091,2.0113,2.0121,2.0124,2.0131,2.0126,2.0115,2.0121,2.0065,2.0122,2.0122,2.0122,2.0122,2.0122,1.9683,1.9708,1.9742,1.9778,1.9803,1.9831,1.9858,1.988,1.9913,1.9956,1.9967,2.0008,2.0043,2.0098,2.012,2.0153,2.0151,2.0161,2.0163,2.0166,2.0166,2.011,2.0161,2.0161,2.0161,2.0161,2.0161,0,1.9727,1.9749,1.9782,1.9824,1.9853,1.9857,1.9891,1.9914,1.995,1.9981,2.0013,2.0058,2.0096,2.0126,2.0166,2.0186,2.0191,2.0196,2.0194,2.0199,2.0166,2.0156,2.0191,2.0191,2.0191,2.0191,2.0191,2.0191,1.9754,1.9796,1.981,1.9864,1.9886,1.9926,1.9945,1.9971,1.9995,2.0045,2.0076,2.0095,2.0126,2.0167,2.0202,2.021,2.0224,2.0228,2.0237,2.0205,2.0202,2.0198,2.0189,2.0231,2.0231,2.0267,2.0268,2.0268]},{"header":{"parameterUnit":"m.s-1","parameterCategory":1,"la1":30.2991,"la2":30.254,"lo1":-89.0895,"lo2":-89.0444,"dy":0.0017,"dx":0.0017,"nx":28,"ny":28,"refTime":"2023-09-06T21:00:00:Z","depth":0,"parameterNumber":3,"parameterNumberName":"V-component_of_WINDS"},"data":[0,0,0,0,0,0,0,0,0,0,0,0,0,0,0,0,0,0,0,0,0,0,0,0,0,0,0,0,0,0,0,0,0,0,0,0,0,0,0,0,0,0,0,0,0,0,0,0,0,0,0,0,0,0,0,0,0,0,2.9595,2.9594,0,2.9575,2.9575,2.9575,2.9581,2.9582,2.9582,2.9583,2.9559,2.9558,2.9557,0,0,0,0,0,0,0,0,0,0,0,0,0,2.9633,2.9633,2.9595,2.9594,2.9594,2.9575,2.9575,2.9575,2.9581,2.9582,2.9582,2.9583,2.9559,2.9558,2.9557,0,0,0,0,0,0,0,0,0,0,0,0,0,2.9615,2.9632,2.9595,2.9595,2.9595,2.9575,2.9575,2.9575,2.9581,2.9582,2.9583,2.9583,2.956,2.9558,2.9557,2.9534,0,0,2.9552,2.9551,0,0,0,0,0,0,0,0,2.9616,2.9614,2.9595,2.9595,2.9595,2.9582,2.958,2.9561,2.9581,2.9586,2.9583,2.9583,2.9566,2.9564,2.9558,2.9533,2.9532,2.9552,2.9551,2.955,2.955,0,0,0,0,0,0,0,2.9618,2.9615,2.9587,2.9595,2.9595,2.9595,2.9593,2.9576,2.9572,2.9586,2.9586,2.9584,2.9566,2.956,2.9558,2.9531,2.9552,2.955,2.9549,2.9549,2.9484,2.9483,0,0,0,0,0,0,2.9619,2.9616,2.9587,2.9586,2.9608,2.9594,2.9592,2.9585,2.9573,2.9571,2.9584,2.9585,2.9562,2.956,2.9557,2.9528,2.955,2.9549,2.9548,2.9485,2.9484,2.9483,0,0,0,0,0,0,2.962,2.9617,2.9588,2.9601,2.9598,2.9593,2.9585,2.9584,2.9579,2.9571,2.957,2.9579,2.9563,2.9559,2.9539,2.9528,2.9548,2.9546,2.9486,2.9485,2.9484,2.9471,0,0,0,0,0,0,2.9621,2.9617,2.9609,2.9601,2.9597,2.9572,2.9584,2.9583,2.9576,2.9577,2.9566,2.9565,2.9563,2.9542,2.9538,2.9526,2.9545,2.9487,2.9485,2.9484,2.9473,2.947,2.9468,0,0,0,0,0,2.9623,2.9606,2.9609,2.9606,2.9587,2.9571,2.9569,2.9568,2.9576,2.9567,2.9562,2.9565,2.953,2.954,2.9535,2.9523,2.9488,2.9486,2.9484,2.9474,2.9471,2.9468,0,0,0,0,0,0,2.9612,2.9605,2.9608,2.9589,2.9581,2.9573,2.9562,2.9565,2.9554,2.9555,2.9553,2.9551,2.953,2.9524,2.9535,2.9499,2.951,2.9507,2.9503,2.95,2.9497,2.9498,2.9544,0,0,0,0,0,2.9608,2.9597,2.9591,2.9574,2.957,2.9567,2.956,2.956,2.9551,2.9547,2.9541,2.9531,2.9518,2.9509,2.9496,2.9472,2.9469,2.9461,2.9459,2.9457,2.9454,2.9439,2.9435,2.9477,2.9477,2.9477,0,0,2.9598,2.9593,2.9586,2.9572,2.9566,2.9553,2.9564,2.955,2.954,2.9545,2.9526,2.9521,2.9509,2.9487,2.9477,2.9482,2.9442,2.9455,2.9453,2.9451,2.9437,2.9433,2.943,2.9476,2.9476,2.9477,0,0,2.9574,2.957,2.9555,2.9548,2.954,2.9537,2.9534,2.9525,2.9522,2.9504,2.9507,2.9494,2.9471,2.9463,2.9456,2.9428,2.943,2.9424,2.9409,2.9395,2.9392,2.9389,2.9377,2.9373,2.9421,2.9421,2.9421,0,2.9562,2.9545,2.9546,2.9532,2.9525,2.9531,2.9514,2.9508,2.9495,2.9489,2.9495,2.9466,2.9459,2.9434,2.9428,2.9422,2.9416,2.9424,2.9393,2.9389,2.9387,2.9376,2.9371,2.942,2.942,2.9421,2.9421,0,2.953,2.9518,2.9507,2.9495,2.9487,2.9472,2.947,2.9461,2.9462,2.9459,2.9438,2.943,2.9415,2.941,2.941,2.9385,2.9388,2.9393,2.9403,2.9382,2.9371,2.9367,2.9419,2.9419,2.942,2.942,0,0,2.9498,2.9488,2.9483,2.9478,2.9468,2.9458,2.9442,2.9429,2.9421,2.9412,2.9397,2.9378,2.9383,2.9375,2.9374,2.9362,2.9338,2.9369,2.9368,2.9362,2.9308,2.9302,2.9298,2.934,2.934,2.9339,2.9308,0,2.9472,2.9446,2.9447,2.9422,2.941,2.9415,2.9401,2.9393,2.9389,2.9377,2.9372,2.9358,2.9367,2.9361,2.935,2.9344,2.9327,2.9346,2.9325,2.9324,2.9326,2.9292,2.9287,2.9258,2.9304,2.9303,2.9303,0,2.9437,2.9428,2.9402,2.9394,2.9389,2.9377,2.9364,2.9353,2.9343,2.9341,2.9332,2.9333,2.9316,2.9328,2.9303,2.9316,2.9307,2.9303,2.9301,2.9298,2.9311,2.9286,2.9249,2.9244,2.9297,2.9297,2.9298,0,2.9414,2.9395,2.9377,2.9372,2.9363,2.9354,2.9349,2.934,2.9332,2.932,2.9315,2.9301,2.9293,2.9281,2.9278,2.9288,2.9252,2.9264,2.9249,2.9249,2.924,2.924,2.9199,2.9237,2.9237,2.9237,2.9237,0,2.9384,2.9368,2.9367,2.9355,2.9337,2.9337,2.9318,2.9314,2.9306,2.9293,2.9296,2.9283,2.9281,2.9267,2.9264,2.9243,2.9239,2.9236,2.9235,2.9235,2.9235,2.9228,2.9229,2.9236,2.9236,2.9237,2.9237,0,2.9354,2.9353,2.9334,2.9326,2.9324,2.931,2.9303,2.9292,2.9289,2.9272,2.9268,2.9263,2.9246,2.9243,2.9223,2.9221,2.9195,2.9197,2.9199,2.9198,2.9182,2.9183,2.9133,2.9126,2.9171,2.917,2.917,0,2.9334,2.9322,2.9313,2.9306,2.9301,2.9288,2.9279,2.9279,2.927,2.9258,2.9247,2.9232,2.9219,2.9193,2.9186,2.9171,2.9171,2.9155,2.9169,2.9168,2.9169,2.9169,2.9167,2.9152,2.9151,2.9151,2.915,0,2.9298,2.9298,2.9287,2.9275,2.9266,2.9256,2.9247,2.924,2.9238,2.9228,2.9212,2.9202,2.9183,2.9166,2.9151,2.9144,2.9146,2.9147,2.9142,2.914,2.9141,2.9139,2.919,2.9147,2.9147,2.9148,2.9148,2.9148,2.9271,2.926,2.9252,2.9239,2.9233,2.9224,2.9213,2.9209,2.9196,2.9181,2.9181,2.9163,2.9153,2.9132,2.9125,2.911,2.9114,2.9108,2.9106,2.9104,2.9101,2.9145,2.9107,2.9107,2.9107,2.9107,2.9107,0,2.9234,2.9229,2.9217,2.9205,2.9194,2.92,2.919,2.918,2.9164,2.9155,2.9143,2.9124,2.9108,2.91,2.9084,2.9073,2.9074,2.9069,2.9069,2.9067,2.9099,2.9104,2.9069,2.9069,2.9069,2.9069,2.9069,2.9069,2.9213,2.9194,2.9193,2.917,2.9165,2.9149,2.9143,2.9134,2.9127,2.9106,2.9093,2.9089,2.9079,2.9063,2.9048,2.9046,2.9039,2.9033,2.9031,2.9061,2.9065,2.9068,2.9073,2.9032,2.9032,2.9,2.9,2.8999]}]]